Time,TemperatureF,DewpointF,PressureIn,WindDirection,WindDirectionDegrees,WindSpeedMPH,WindSpeedGustMPH,Humidity,HourlyPrecipIn,Conditions,Clouds,dailyrainin,SoftwareType,DateUTC
2013-06-24 10:25:00,74.4,66.4,30.20,SW,225,3.8,3.8,76,0.00,,,0.00,WUHU216HW,2013-06-24 14:25:00,
2013-06-24 10:26:00,74.4,66.4,30.20,SW,225,3.8,3.8,76,0.00,,,0.00,WUHU216HW,2013-06-24 14:26:00,
2013-06-24 10:31:00,74.6,66.6,30.20,SSW,203,4.2,4.2,76,0.00,,,0.00,WUHU216HW,2013-06-24 14:31:00,
2013-06-24 10:36:00,74.4,66.4,30.20,SSW,203,8.0,8.0,76,0.00,,,0.00,WUHU216HW,2013-06-24 14:36:00,
2013-06-24 10:42:00,74.4,66.4,30.19,SW,225,10.7,10.7,76,0.00,,,0.00,WUHU216HW,2013-06-24 14:42:00,
2013-06-24 10:47:00,74.4,66.4,30.20,SSW,203,3.1,10.7,76,0.00,,,0.00,WUHU216HW,2013-06-24 14:47:00,
2013-06-24 10:52:00,74.4,66.4,30.20,South,180,5.1,10.7,76,0.00,,,0.00,WUHU216HW,2013-06-24 14:52:00,
2013-06-24 10:57:00,74.6,66.2,30.20,SSW,203,5.1,5.1,75,0.00,,,0.00,WUHU216HW,2013-06-24 14:57:00,
2013-06-24 11:02:00,74.6,66.2,30.20,SSW,203,5.1,5.1,75,0.00,,,0.00,WUHU216HW,2013-06-24 15:02:00,
2013-06-24 11:07:00,75.0,66.5,30.19,South,180,0.0,5.1,75,0.00,,,0.00,WUHU216HW,2013-06-24 15:07:00,
2013-06-24 11:13:00,75.2,66.7,30.20,SSW,203,1.7,4.4,75,0.00,,,0.00,WUHU216HW,2013-06-24 15:13:00,
2013-06-24 11:18:00,75.3,66.9,30.20,South,180,3.8,11.6,75,0.00,,,0.00,WUHU216HW,2013-06-24 15:18:00,
2013-06-24 11:23:00,75.3,66.5,30.20,SW,225,7.6,11.6,74,0.00,,,0.00,WUHU216HW,2013-06-24 15:23:00,
2013-06-24 11:29:00,75.7,66.8,30.19,South,180,0.8,7.6,74,0.00,,,0.00,WUHU216HW,2013-06-24 15:29:00,
2013-06-24 11:34:00,75.7,66.4,30.19,SW,225,5.5,8.5,73,0.00,,,0.00,WUHU216HW,2013-06-24 15:34:00,
2013-06-24 11:39:00,76.1,66.8,30.19,SSW,203,1.1,8.5,73,0.00,,,0.00,WUHU216HW,2013-06-24 15:39:00,
2013-06-24 11:44:00,77.0,67.3,30.19,SSW,203,4.0,5.5,72,0.00,,,0.00,WUHU216HW,2013-06-24 15:44:00,
2013-06-24 11:49:00,77.3,67.2,30.18,SW,225,3.8,4.0,71,0.00,,,0.00,WUHU216HW,2013-06-24 15:49:00,
2013-06-24 11:54:00,77.9,67.3,30.18,SSW,203,0.0,3.8,70,0.00,,,0.00,WUHU216HW,2013-06-24 15:54:00,
2013-06-24 11:59:00,78.2,67.6,30.18,South,180,0.0,3.8,70,0.00,,,0.00,WUHU216HW,2013-06-24 15:59:00,
2013-06-24 12:04:00,78.6,67.5,30.18,SSW,203,0.0,0.0,69,0.00,,,0.00,WUHU216HW,2013-06-24 16:04:00,
2013-06-24 12:09:00,79.5,68.4,30.18,WNW,293,0.0,4.4,69,0.00,,,0.00,WUHU216HW,2013-06-24 16:09:00,
2013-06-24 12:15:00,80.0,68.0,30.19,West,270,0.0,4.4,67,0.00,,,0.00,WUHU216HW,2013-06-24 16:15:00,
2013-06-24 12:20:00,79.8,67.9,30.19,SSW,203,2.6,2.6,67,0.00,,,0.00,WUHU216HW,2013-06-24 16:20:00,
2013-06-24 12:25:00,79.5,67.1,30.19,South,180,0.0,5.5,66,0.00,,,0.00,WUHU216HW,2013-06-24 16:25:00,
2013-06-24 12:30:00,79.5,67.1,30.18,SSW,203,10.2,10.2,66,0.00,,,0.00,WUHU216HW,2013-06-24 16:30:00,
2013-06-24 12:36:00,79.3,66.9,30.18,SSW,203,3.8,10.2,66,0.00,,,0.00,WUHU216HW,2013-06-24 16:36:00,
2013-06-24 12:41:00,78.9,66.6,30.18,SSW,203,4.2,10.2,66,0.00,,,0.00,WUHU216HW,2013-06-24 16:41:00,
2013-06-24 12:46:00,79.3,66.9,30.17,SSW,203,0.8,4.4,66,0.00,,,0.00,WUHU216HW,2013-06-24 16:46:00,
2013-06-24 12:51:00,79.8,67.9,30.16,SSW,203,1.1,4.4,67,0.00,,,0.00,WUHU216HW,2013-06-24 16:51:00,
2013-06-24 12:56:00,80.7,67.4,30.16,SE,135,0.0,1.1,64,0.00,,,0.00,WUHU216HW,2013-06-24 16:56:00,
2013-06-24 13:01:00,81.5,67.1,30.14,NE,45,0.0,3.1,62,0.00,,,0.00,WUHU216HW,2013-06-24 17:01:00,
2013-06-24 13:06:00,82.5,68.1,30.13,NE,45,0.0,3.1,62,0.00,,,0.00,WUHU216HW,2013-06-24 17:06:00,
2013-06-24 13:11:00,84.3,69.5,30.15,North,0,0.0,0.0,61,0.00,,,0.00,WUHU216HW,2013-06-24 17:11:00,
2013-06-24 13:16:00,85.8,68.7,30.13,South,180,0.0,1.7,57,0.00,,,0.00,WUHU216HW,2013-06-24 17:16:00,
2013-06-24 13:21:00,86.1,68.0,30.13,WNW,293,0.0,4.0,55,0.00,,,0.00,WUHU216HW,2013-06-24 17:21:00,
2013-06-24 13:26:00,85.6,67.5,30.13,SW,225,0.0,4.0,55,0.00,,,0.00,WUHU216HW,2013-06-24 17:26:00,
2013-06-24 13:31:00,85.2,67.2,30.13,SW,225,6.0,6.0,55,0.00,,,0.00,WUHU216HW,2013-06-24 17:31:00,
2013-06-24 13:36:00,84.9,66.4,30.13,WSW,248,2.0,6.0,54,0.00,,,0.00,WUHU216HW,2013-06-24 17:36:00,
2013-06-24 13:41:00,83.8,66.4,30.14,SSW,203,0.0,8.0,56,0.00,,,0.00,WUHU216HW,2013-06-24 17:41:00,
2013-06-24 13:47:00,83.8,65.9,30.13,SW,225,5.1,8.0,55,0.00,,,0.00,WUHU216HW,2013-06-24 17:47:00,
2013-06-24 13:52:00,84.0,67.4,30.13,WNW,293,0.0,6.4,57,0.00,,,0.00,WUHU216HW,2013-06-24 17:52:00,
2013-06-24 13:57:00,85.8,68.2,30.13,ESE,113,0.0,0.0,56,0.00,,,0.00,WUHU216HW,2013-06-24 17:57:00,
2013-06-24 14:02:00,86.1,68.0,30.12,ENE,68,0.0,0.0,55,0.00,,,0.00,WUHU216HW,2013-06-24 18:02:00,
2013-06-24 14:07:00,86.5,68.4,30.12,East,90,0.0,0.0,55,0.00,,,0.00,WUHU216HW,2013-06-24 18:07:00,
2013-06-24 14:12:00,87.0,68.9,30.12,SE,135,0.0,0.0,55,0.00,,,0.00,WUHU216HW,2013-06-24 18:12:00,
2013-06-24 14:18:00,87.0,68.9,30.11,SW,225,0.0,0.0,55,0.00,,,0.00,WUHU216HW,2013-06-24 18:18:00,
2013-06-24 14:23:00,87.6,68.9,30.11,SE,135,0.0,3.8,54,0.00,,,0.00,WUHU216HW,2013-06-24 18:23:00,
2013-06-24 14:28:00,87.8,69.0,30.11,SSW,203,0.0,3.8,54,0.00,,,0.00,WUHU216HW,2013-06-24 18:28:00,
2013-06-24 14:33:00,89.2,68.7,30.11,SSE,158,0.0,2.0,52,0.00,,,0.00,WUHU216HW,2013-06-24 18:33:00,
2013-06-24 14:38:00,89.6,69.0,30.11,South,180,4.0,4.0,51,0.00,,,0.00,WUHU216HW,2013-06-24 18:38:00,
2013-06-24 14:43:00,89.6,68.5,30.11,South,180,0.8,5.3,50,0.00,,,0.00,WUHU216HW,2013-06-24 18:43:00,
2013-06-24 14:48:00,88.5,66.9,30.11,SSW,203,6.7,6.7,49,0.00,,,0.00,WUHU216HW,2013-06-24 18:48:00,
2013-06-24 14:53:00,87.6,67.8,30.11,SSE,158,0.8,6.7,52,0.00,,,0.00,WUHU216HW,2013-06-24 18:53:00,
2013-06-24 14:58:00,87.6,68.3,30.11,SSE,158,0.8,2.4,53,0.00,,,0.00,WUHU216HW,2013-06-24 18:58:00,
2013-06-24 15:03:00,88.1,68.8,30.11,SSE,158,1.7,2.4,53,0.00,,,0.00,WUHU216HW,2013-06-24 19:03:00,
2013-06-24 15:08:00,88.3,69.5,30.11,SSE,158,4.0,4.0,54,0.00,,,0.00,WUHU216HW,2013-06-24 19:08:00,
2013-06-24 15:13:00,87.9,69.7,30.12,SE,135,0.0,4.0,55,0.00,,,0.00,WUHU216HW,2013-06-24 19:13:00,
2013-06-24 15:19:00,88.3,69.0,30.12,SSW,203,2.9,2.9,53,0.00,,,0.00,WUHU216HW,2013-06-24 19:19:00,
2013-06-24 15:24:00,88.1,67.2,30.11,South,180,0.8,3.8,50,0.00,,,0.00,WUHU216HW,2013-06-24 19:24:00,
2013-06-24 15:29:00,87.6,66.7,30.12,SE,135,0.0,3.8,50,0.00,,,0.00,WUHU216HW,2013-06-24 19:29:00,
2013-06-24 15:35:00,87.4,66.5,30.12,SSE,158,1.3,3.8,50,0.00,,,0.00,WUHU216HW,2013-06-24 19:35:00,
2013-06-24 15:40:00,87.4,66.5,30.12,SSW,203,6.0,6.0,50,0.00,,,0.00,WUHU216HW,2013-06-24 19:40:00,
2013-06-24 15:45:00,87.4,67.1,30.11,South,180,2.2,6.0,51,0.00,,,0.00,WUHU216HW,2013-06-24 19:45:00,
2013-06-24 15:50:00,86.7,66.4,30.12,South,180,5.3,5.8,51,0.00,,,0.00,WUHU216HW,2013-06-24 19:50:00,
2013-06-24 15:55:00,86.1,66.5,30.12,SSE,158,0.6,5.8,52,0.00,,,0.00,WUHU216HW,2013-06-24 19:55:00,
2013-06-24 16:00:00,86.3,66.1,30.11,SSE,158,1.5,5.3,51,0.00,,,0.00,WUHU216HW,2013-06-24 20:00:00,
2013-06-24 16:05:00,86.9,67.1,30.11,SSW,203,5.5,5.5,52,0.00,,,0.00,WUHU216HW,2013-06-24 20:05:00,
2013-06-24 16:10:00,87.4,67.1,30.11,SSW,203,3.8,5.5,51,0.00,,,0.00,WUHU216HW,2013-06-24 20:10:00,
2013-06-24 16:16:00,87.6,67.2,30.11,South,180,1.3,5.5,51,0.00,,,0.00,WUHU216HW,2013-06-24 20:16:00,
2013-06-24 16:21:00,88.1,67.7,30.10,SSW,203,1.3,4.4,51,0.00,,,0.00,WUHU216HW,2013-06-24 20:21:00,
2013-06-24 16:26:00,88.5,67.5,30.10,SSW,203,2.4,3.8,50,0.00,,,0.00,WUHU216HW,2013-06-24 20:26:00,
2013-06-24 16:31:00,89.2,68.2,30.10,SE,135,0.0,3.8,50,0.00,,,0.00,WUHU216HW,2013-06-24 20:31:00,
2013-06-24 16:37:00,89.4,68.2,30.10,SSW,203,3.3,3.3,50,0.00,,,0.00,WUHU216HW,2013-06-24 20:37:00,
2013-06-24 16:42:00,88.8,67.2,30.09,SSW,203,4.6,4.6,49,0.00,,,0.00,WUHU216HW,2013-06-24 20:42:00,
2013-06-24 16:47:00,88.7,67.7,30.09,South,180,4.9,6.4,50,0.00,,,0.00,WUHU216HW,2013-06-24 20:47:00,
2013-06-24 16:52:00,88.7,67.7,30.09,SSW,203,2.2,6.4,50,0.00,,,0.00,WUHU216HW,2013-06-24 20:52:00,
2013-06-24 16:57:00,88.5,67.5,30.09,SSW,203,8.5,8.5,50,0.00,,,0.00,WUHU216HW,2013-06-24 20:57:00,
2013-06-24 17:02:00,87.9,67.6,30.09,SSW,203,8.9,8.9,51,0.00,,,0.00,WUHU216HW,2013-06-24 21:02:00,
2013-06-24 17:07:00,87.6,67.2,30.08,SSW,203,8.9,8.9,51,0.00,,,0.00,WUHU216HW,2013-06-24 21:07:00,
2013-06-24 17:12:00,87.8,68.5,30.08,South,180,6.0,8.9,53,0.00,,,0.00,WUHU216HW,2013-06-24 21:12:00,
2013-06-24 17:17:00,87.9,68.7,30.08,SSW,203,4.4,8.9,53,0.00,,,0.00,WUHU216HW,2013-06-24 21:17:00,
2013-06-24 17:23:00,88.3,69.0,30.08,WSW,248,0.8,4.4,53,0.00,,,0.00,WUHU216HW,2013-06-24 21:23:00,
2013-06-24 17:28:00,89.4,69.4,30.08,South,180,0.0,6.0,52,0.00,,,0.00,WUHU216HW,2013-06-24 21:28:00,
2013-06-24 17:33:00,89.9,69.9,30.08,SSW,203,0.0,6.0,52,0.00,,,0.00,WUHU216HW,2013-06-24 21:33:00,
2013-06-24 17:38:00,90.1,69.5,30.09,WNW,293,0.0,3.3,51,0.00,,,0.00,WUHU216HW,2013-06-24 21:38:00,
2013-06-24 17:43:00,89.9,69.9,30.09,SSW,203,5.3,5.3,52,0.00,,,0.00,WUHU216HW,2013-06-24 21:43:00,
2013-06-24 17:49:00,89.7,70.3,30.09,WSW,248,0.0,5.3,53,0.00,,,0.00,WUHU216HW,2013-06-24 21:49:00,
2013-06-24 17:54:00,89.7,69.7,30.10,SW,225,2.4,5.3,52,0.00,,,0.00,WUHU216HW,2013-06-24 21:54:00,
2013-06-24 17:59:00,88.7,68.8,30.10,WSW,248,0.0,2.4,52,0.00,,,0.00,WUHU216HW,2013-06-24 21:59:00,
2013-06-24 18:04:00,88.3,69.0,30.10,SSW,203,3.5,3.5,53,0.00,,,0.00,WUHU216HW,2013-06-24 22:04:00,
2013-06-24 18:09:00,87.0,68.3,30.10,WNW,293,0.0,3.5,54,0.00,,,0.00,WUHU216HW,2013-06-24 22:09:00,
2013-06-24 18:15:00,86.7,68.5,30.11,WSW,248,0.0,3.5,55,0.00,,,0.00,WUHU216HW,2013-06-24 22:15:00,
2013-06-24 18:20:00,86.9,69.2,30.11,West,270,1.7,1.7,56,0.00,,,0.00,WUHU216HW,2013-06-24 22:20:00,
2013-06-24 18:25:00,86.7,68.5,30.10,West,270,0.0,1.7,55,0.00,,,0.00,WUHU216HW,2013-06-24 22:25:00,
2013-06-24 18:30:00,86.3,68.7,30.10,SSW,203,3.3,3.3,56,0.00,,,0.00,WUHU216HW,2013-06-24 22:30:00,
2013-06-24 18:35:00,85.8,68.7,30.11,SW,225,6.9,6.9,57,0.00,,,0.00,WUHU216HW,2013-06-24 22:35:00,
2013-06-24 18:40:00,85.2,68.8,30.10,SSW,203,0.8,6.9,58,0.00,,,0.00,WUHU216HW,2013-06-24 22:40:00,
2013-06-24 18:45:00,84.9,69.0,30.10,SSW,203,6.0,6.0,59,0.00,,,0.00,WUHU216HW,2013-06-24 22:45:00,
2013-06-24 18:50:00,84.7,69.3,30.10,SSW,203,0.6,6.0,60,0.00,,,0.00,WUHU216HW,2013-06-24 22:50:00,
2013-06-24 18:55:00,84.5,69.2,30.10,SSW,203,1.5,6.0,60,0.00,,,0.00,WUHU216HW,2013-06-24 22:55:00,
2013-06-24 19:00:00,84.0,69.1,30.09,SW,225,2.6,4.2,61,0.00,,,0.00,WUHU216HW,2013-06-24 23:00:00,
2013-06-24 19:05:00,83.8,69.4,30.08,SW,225,0.0,8.9,62,0.00,,,0.00,WUHU216HW,2013-06-24 23:05:00,
2013-06-24 19:11:00,83.4,69.0,30.08,SSW,203,3.3,8.9,62,0.00,,,0.00,WUHU216HW,2013-06-24 23:11:00,
2013-06-24 19:16:00,83.6,69.2,30.09,South,180,1.5,3.8,62,0.00,,,0.00,WUHU216HW,2013-06-24 23:16:00,
2013-06-24 19:21:00,83.4,69.5,30.09,SSW,203,4.6,4.6,63,0.00,,,0.00,WUHU216HW,2013-06-24 23:21:00,
2013-06-24 19:26:00,83.1,69.1,30.09,SSW,203,4.4,4.6,63,0.00,,,0.00,WUHU216HW,2013-06-24 23:26:00,
2013-06-24 19:31:00,82.9,68.9,30.09,SSW,203,1.5,4.4,63,0.00,,,0.00,WUHU216HW,2013-06-24 23:31:00,
2013-06-24 19:36:00,82.9,69.4,30.08,SW,225,3.5,4.4,64,0.00,,,0.00,WUHU216HW,2013-06-24 23:36:00,
2013-06-24 19:41:00,82.5,69.0,30.08,SSW,203,0.0,3.5,64,0.00,,,0.00,WUHU216HW,2013-06-24 23:41:00,
2013-06-24 19:46:00,82.2,69.1,30.08,SSW,203,4.9,4.9,65,0.00,,,0.00,WUHU216HW,2013-06-24 23:46:00,
2013-06-24 19:51:00,82.0,69.0,30.08,SSW,203,4.9,4.9,65,0.00,,,0.00,WUHU216HW,2013-06-24 23:51:00,
2013-06-24 19:57:00,81.6,69.1,30.08,SSW,203,5.1,5.1,66,0.00,,,0.00,WUHU216HW,2013-06-24 23:57:00,
2013-06-24 20:02:00,81.5,68.9,30.09,SSW,203,2.2,5.1,66,0.00,,,0.00,WUHU216HW,2013-06-25 00:02:00,
2013-06-24 20:07:00,81.1,69.1,30.10,SW,225,6.4,8.2,67,0.00,,,0.00,WUHU216HW,2013-06-25 00:07:00,
2013-06-24 20:12:00,80.7,69.2,30.11,SSW,203,9.8,9.8,68,0.00,,,0.00,WUHU216HW,2013-06-25 00:12:00,
2013-06-24 20:17:00,80.4,66.6,30.12,WSW,248,10.7,10.7,63,0.00,,,0.00,WUHU216HW,2013-06-25 00:17:00,
2013-06-24 20:22:00,78.6,65.4,30.10,SSW,203,16.3,23.4,64,0.00,,,0.00,WUHU216HW,2013-06-25 00:22:00,
2013-06-24 20:27:00,75.0,64.5,30.08,South,180,2.9,23.4,70,0.00,,,0.00,WUHU216HW,2013-06-25 00:27:00,
2013-06-24 20:32:00,73.5,64.0,30.06,South,180,3.8,10.0,72,0.00,,,0.00,WUHU216HW,2013-06-25 00:32:00,
2013-06-24 20:37:00,71.9,63.2,30.04,South,180,6.0,6.9,74,0.00,,,0.00,WUHU216HW,2013-06-25 00:37:00,
2013-06-24 20:42:00,71.2,62.8,30.05,SSE,158,1.5,6.0,75,0.00,,,0.00,WUHU216HW,2013-06-25 00:42:00,
2013-06-24 20:48:00,70.5,62.9,30.04,SSE,158,0.0,6.0,77,0.00,,,0.00,WUHU216HW,2013-06-25 00:48:00,
2013-06-24 20:53:00,69.9,62.7,30.03,SSE,158,0.0,4.6,78,0.00,,,0.00,WUHU216HW,2013-06-25 00:53:00,
2013-06-24 20:58:00,69.6,62.4,30.02,SSE,158,0.0,4.6,78,0.00,,,0.00,WUHU216HW,2013-06-25 00:58:00,
2013-06-24 21:03:00,69.6,62.4,30.02,SE,135,0.0,0.0,78,0.00,,,0.00,WUHU216HW,2013-06-25 01:03:00,
2013-06-24 21:08:00,69.4,62.6,30.01,ESE,113,0.0,0.0,79,0.00,,,0.00,WUHU216HW,2013-06-25 01:08:00,
2013-06-24 21:13:00,69.4,62.6,30.03,SE,135,0.0,0.0,79,0.00,,,0.00,WUHU216HW,2013-06-25 01:13:00,
2013-06-24 21:18:00,69.4,62.9,30.03,SSW,203,0.0,1.1,80,0.00,,,0.00,WUHU216HW,2013-06-25 01:18:00,
2013-06-24 21:23:00,69.0,62.6,30.04,SSW,203,1.3,5.1,80,0.00,,,0.00,WUHU216HW,2013-06-25 01:23:00,
2013-06-24 21:28:00,68.7,62.5,30.03,SSW,203,0.0,5.1,80,0.00,,,0.00,WUHU216HW,2013-06-25 01:28:00,
2013-06-24 21:33:00,68.5,62.5,30.04,South,180,1.5,2.9,81,0.00,,,0.00,WUHU216HW,2013-06-25 01:33:00,
2013-06-24 21:39:00,68.3,62.3,30.05,South,180,2.9,2.9,81,0.00,,,0.00,WUHU216HW,2013-06-25 01:39:00,
2013-06-24 21:44:00,68.1,62.5,30.05,South,180,0.6,2.9,82,0.00,,,0.00,WUHU216HW,2013-06-25 01:44:00,
2013-06-24 21:49:00,68.1,62.5,30.04,South,180,0.0,1.1,82,0.00,,,0.00,WUHU216HW,2013-06-25 01:49:00,
2013-06-24 21:54:00,67.8,62.1,30.03,South,180,0.8,2.0,82,0.00,,,0.00,WUHU216HW,2013-06-25 01:54:00,
2013-06-24 21:59:00,67.8,62.1,30.05,SSW,203,0.0,2.0,82,0.00,,,0.00,WUHU216HW,2013-06-25 01:59:00,
2013-06-24 22:04:00,67.8,62.1,30.06,South,180,0.6,1.5,82,0.00,,,0.00,WUHU216HW,2013-06-25 02:04:00,
2013-06-24 22:10:00,67.8,62.4,30.06,South,180,0.0,6.2,83,0.00,,,0.00,WUHU216HW,2013-06-25 02:10:00,
2013-06-24 22:15:00,67.8,62.4,30.07,South,180,2.0,6.2,83,0.00,,,0.00,WUHU216HW,2013-06-25 02:15:00,
2013-06-24 22:20:00,67.8,62.8,30.07,SSE,158,2.0,2.0,84,0.00,,,0.00,WUHU216HW,2013-06-25 02:20:00,
2013-06-24 22:25:00,67.8,62.8,30.08,South,180,3.5,4.6,84,0.00,,,0.00,WUHU216HW,2013-06-25 02:25:00,
2013-06-24 22:30:00,67.8,62.8,30.08,South,180,1.1,4.6,84,0.00,,,0.00,WUHU216HW,2013-06-25 02:30:00,
2013-06-24 22:35:00,67.8,62.8,30.08,South,180,2.4,2.6,84,0.00,,,0.00,WUHU216HW,2013-06-25 02:35:00,
2013-06-24 22:41:00,67.8,62.8,30.08,South,180,2.0,2.4,84,0.00,,,0.00,WUHU216HW,2013-06-25 02:41:00,
2013-06-24 22:46:00,67.8,63.1,30.08,South,180,0.0,2.4,84,0.00,,,0.00,WUHU216HW,2013-06-25 02:46:00,
2013-06-24 22:51:00,67.8,63.1,30.08,SSW,203,0.0,5.5,85,0.00,,,0.00,WUHU216HW,2013-06-25 02:51:00,
2013-06-24 22:56:00,67.8,63.1,30.08,SSW,203,1.7,5.5,85,0.00,,,0.00,WUHU216HW,2013-06-25 02:56:00,
2013-06-24 23:01:00,67.8,63.1,30.08,SW,225,2.9,4.6,85,0.00,,,0.00,WUHU216HW,2013-06-25 03:01:00,
2013-06-24 23:06:00,67.8,63.1,30.08,South,180,0.0,3.3,85,0.00,,,0.00,WUHU216HW,2013-06-25 03:06:00,
2013-06-24 23:11:00,67.8,62.8,30.08,SSW,203,3.8,3.8,84,0.00,,,0.00,WUHU216HW,2013-06-25 03:11:00,
2013-06-24 23:17:00,67.8,63.1,30.08,SSW,203,1.5,3.8,85,0.00,,,0.00,WUHU216HW,2013-06-25 03:17:00,
2013-06-24 23:22:00,67.8,63.1,30.08,SSW,203,1.1,5.1,85,0.00,,,0.00,WUHU216HW,2013-06-25 03:22:00,
2013-06-24 23:27:00,67.6,62.9,30.08,SSW,203,1.5,5.1,85,0.00,,,0.00,WUHU216HW,2013-06-25 03:27:00,
2013-06-24 23:32:00,67.6,62.9,30.08,SSW,203,0.8,3.8,85,0.00,,,0.00,WUHU216HW,2013-06-25 03:32:00,
2013-06-24 23:37:00,67.6,62.9,30.08,SSW,203,5.1,5.1,85,0.00,,,0.00,WUHU216HW,2013-06-25 03:37:00,
2013-06-24 23:42:00,67.8,63.1,30.09,SW,225,4.0,7.8,85,0.00,,,0.00,WUHU216HW,2013-06-25 03:42:00,
2013-06-24 23:47:00,67.8,63.1,30.09,SSW,203,0.0,7.8,85,0.00,,,0.00,WUHU216HW,2013-06-25 03:47:00,
2013-06-24 23:52:00,67.8,63.1,30.09,SSW,203,2.0,3.3,85,0.00,,,0.00,WUHU216HW,2013-06-25 03:52:00,
2013-06-24 23:58:00,67.8,62.8,30.09,SSW,203,4.2,4.2,84,0.00,,,0.00,WUHU216HW,2013-06-25 03:58:00,